Location: Dennehotso
(36.8461°N, 109.8435°W)
Time: 23:03:43
(UTC+00:00)

Envisat - Pass Details

Date: 06 March 2021
Orbit: 764 x 766 km, 98.1° (Epoch: 12 April)

Event Time Altitude Azimuth Distance (km) Brightness Sun altitude
Rises 11:31:48 0° 38° (NE) 3,235 7.0 -26.9°
Reaches altitude 10° 11:35:57 10° 71° (ENE) 2,302 6.5 -26.1°
Maximum altitude 11:37:34 11° 90° (E) 2,199 6.3 -25.7°
Drops below altitude 10° 11:39:12 10° 109° (ESE) 2,297 6.2 -25.4°
Sets 11:43:17 0° 142° (SE) 3,215 6.6 -24.6°
